QIANFAN-99 (66041 NORAD) Tracking and Keplerian Element Data

This shows tracking and keplerian element data for the satellite.

Feedback or suggestion? Click here.




ElementValue
Catalog66041
NameQIANFAN-99
Epoch Orbit898
Epoch Day354.08283907
Epoch Year2025
RAAN61.3818
Inclination88.9947
Eccentricity0.001795
Argument of Perigee42.8343
Mean Anonmoly317.4213
Mean Motion13.67746255
Decay Rate-0.02092494
L11 66041U 25233J 25354.08283907 -.02092494 00000+0 -26495+1 0 9995
L22 66041 88.9947 61.3818 0017950 42.8343 317.4213 13.67746255 8989



Live tracking and technical data element details for QIANFAN-99 (NORAD 66041). QIANFAN-99 can be tracked NOW for your location showing map with azimuth and elevation plus other details from your city location.







IsCatalogInMostPopularTable: catalog: 66041, numindb: 5
Update: records affected: 1



GetName: 66041 QIANFAN-99

Hit Count: updated at: Tue, 21 Apr 2026 19:24:38 GMT